This is the latest recevied weather packets stored in our database for station/object W2JBO-5. If no packets are shown the sender has not sent any weather packets the latest 10 day(s).
| Time | Temp. | Humidity | Pressure | Rain* | Wind** | Luminosity | Snow |
|---|---|---|---|---|---|---|---|
| 1777665331 | 13.89° C | 99% | 1012.4 hPa | 11.94 mm | - | 17 W/m² | - |
| 1777665026 | 13.89° C | 99% | 1012.5 hPa | 11.94 mm | - | 6 W/m² | - |
| 1777664722 | 13.89° C | 99% | 1012.1 hPa | 7.11 mm | - | 15 W/m² | - |
| 1777664418 | 13.89° C | 99% | 1010.7 hPa | 7.87 mm | - | 25 W/m² | - |
| 1777664116 | 13.89° C | 99% | 1010.7 hPa | 7.87 mm | - | 24 W/m² | - |
| 1777663814 | 14.44° C | 99% | 1010.7 hPa | 8.89 mm | - | 27 W/m² | - |
| 1777663511 | 14.44° C | 99% | 1010.9 hPa | 10.16 mm | - | 25 W/m² | - |
| 1777663209 | 15° C | 99% | 1011.2 hPa | 9.65 mm | - | 23 W/m² | - |
| 1777662905 | 15° C | 99% | 1011.5 hPa | 4.83 mm | - | 21 W/m² | - |
| 1777662602 | 15° C | 99% | 1011.7 hPa | 4.32 mm | - | 16 W/m² | - |
| 1777662298 | 15.56° C | 99% | 1011.7 hPa | 4.32 mm | - | 18 W/m² | - |
| 1777661993 | 15.56° C | 99% | 1011.6 hPa | 6.1 mm | - | 23 W/m² | - |
| 1777661690 | 15.56° C | 99% | 1011.5 hPa | 8.89 mm | - | 9 W/m² | - |
| 1777661386 | 16.11° C | 99% | 1011.5 hPa | 8.89 mm | - | 6 W/m² | - |
| 1777661083 | 16.11° C | 99% | 1011.5 hPa | 6.1 mm | - | 7 W/m² | - |
| 1777660777 | 16.11° C | 99% | 1011.5 hPa | 6.1 mm | - | 25 W/m² | - |
| 1777660474 | 16.11° C | 99% | 1011.5 hPa | 6.1 mm | - | 18 W/m² | - |
| 1777660171 | 16.11° C | 99% | 1011.5 hPa | 3.05 mm | - | 20 W/m² | - |
| 1777659867 | 16.67° C | 99% | - | 1.78 mm | - | - | - |
| 1777659564 | 16.67° C | 99% | - | 0 mm | - | - | - |
| 1777659262 | 16.67° C | 99% | - | 0 mm | - | - | - |
| 1777658959 | 16.67° C | 99% | - | 0 mm | - | - | - |
| 1777658655 | 16.67° C | 99% | - | 0 mm | - | - | - |
| 1777658352 | 16.67° C | 99% | - | 0 mm | - | - | - |
| 1777658049 | 16.67° C | 99% | - | 0 mm | - | - | - |
* Rain latest hour (hover to see other rain measurements)
** Current wind speed in m/s (hover to see current wind gust speed)